Home   Weather   Chicago   Past weeks
Flag for USA

Past Weather in Chicago, Illinois, USA — Yesterday and Last 2 Weeks

Now
67 °F

Clear.


Feels Like: 67 °F
Forecast: 74 / 65 °F
Wind: 3 mph from West

Location: Chicago Midway Airport

Current Time: Jul 24, 2019 at 12:21:54 am

Latest Report: Jul 23, 2019 at 11:53 pm


Visibility: 10 mi

Pressure: 30.09 "Hg

Humidity: 73%

Dew Point: 58 °F

Location of ChicagoLocation

Past Weather in Chicago — Graph

°F

Chicago Temperature Yesterday

Maximum temperature yesterday: 80 °F (at 12:53 pm)
Minimum temperature yesterday: 62 °F (at 5:53 am)
Average temperature yesterday: 71 °F

High & Low Weather Summary for the Past Weeks

 TemperatureHumidityPressure
High96 °F (Jul 20, 2:53 pm)100% (Jul 18, 9:18 am)30.09 "Hg (Jul 18, 9:18 am)
Low62 °F (Jul 12, 5:53 am)34% (Jul 9, 3:53 pm)29.72 "Hg (Jul 18, 4:53 pm)
Average79 °F68%29.92 "Hg
* Reported Jul 8 10:53 pm — Jul 23 10:53 pm, Chicago. Weather by CustomWeather, © 2019

Note: Actual official high and low records may vary slightly from our data, if they occured in-between our weather recording intervals... More about our weather records

Advertising

Chicago Weather History for the Previous 24 Hours

Scroll right to see more
 ConditionsComfort  
Time TempWeatherWind HumidityBarometerVisibility
10:53 pm
Tue, Jul 23
69 °FClear.5 mph66%30.09 "Hg10 mi
9:53 pm70 °FPassing clouds.8 mph66%30.09 "Hg10 mi
8:53 pm70 °FPassing clouds.8 mph64%30.08 "Hg10 mi
7:53 pm72 °FPassing clouds.9 mph59%30.07 "Hg10 mi
6:53 pm75 °FPassing clouds.9 mph55%30.06 "Hg10 mi
5:53 pm76 °FPassing clouds.14 mph54%30.06 "Hg10 mi
4:53 pm78 °FPassing clouds.12 mph54%30.06 "Hg10 mi
3:53 pm78 °FScattered clouds.16 mph52%30.05 "Hg10 mi
2:53 pm79 °FBroken clouds.12 mph54%30.05 "Hg10 mi
1:53 pm79 °FBroken clouds.8 mph45%30.05 "Hg10 mi
12:53 pm80 °FBroken clouds.13 mph45%30.06 "Hg10 mi
11:53 am79 °FScattered clouds.15 mph45%30.06 "Hg10 mi
10:53 am79 °FScattered clouds.9 mph42%30.07 "Hg10 mi
9:53 am76 °FPassing clouds.8 mph45%30.08 "Hg10 mi
8:53 am73 °FPassing clouds.8 mph55%30.09 "Hg10 mi
7:53 am69 °FSunny.7 mph68%30.09 "Hg10 mi
6:53 am64 °FPassing clouds.6 mph75%30.09 "Hg10 mi
5:53 am62 °FPassing clouds.6 mph75%30.08 "Hg10 mi
4:53 am63 °FPassing clouds.5 mph73%30.06 "Hg10 mi
3:53 am63 °FPassing clouds.5 mph73%30.06 "Hg10 mi
2:53 am63 °FPassing clouds.5 mph73%30.06 "Hg10 mi
1:53 am63 °FPassing clouds.3 mph70%30.07 "Hg10 mi
12:53 am63 °FClear.No wind68%30.08 "Hg10 mi
Weather by CustomWeather, © 2019

See weather overview